Pineville, LA

5:51 PM CST on February 19, 2017 (GMT -0600)
Alexandria Esler Regional

Weather History for KESF - February, 2012

Change the Weather History Date:

Tuesday, February 14, 2012

  Actual Average Record
Temperature  
Mean Temperature 46 °F -  
Max Temperature 53 °F 67 °F 80 °F (1989)
Min Temperature 39 °F 46 °F 11 °F (1960)
Degree Days  
Heating Degree Days 19    
Moisture  
Dew Point 45 °F    
Average Humidity 93    
Maximum Humidity 100    
Minimum Humidity 80    
Precipitation  
Precipitation 0.00 in - - ()
Sea Level Pressure  
Sea Level Pressure 30.01 in    
Wind  
Wind Speed 2 mph (NW)    
Max Wind Speed 7 mph    
Max Gust Speed -    
Visibility 6 miles    
Events Fog    
Averages and records for this station are not official NWS values.
T = Trace of Precipitation, MM = Missing Value Source: NWS Daily Summary

Daily Weather History Graph

Daily Weather History Graph

Search for Another Location

Airport or City:

Trip Planner

Search our weather history database for the weather conditions in past years. The results will help you decide how hot, cold, wet, or windy it might be!

Date:

Astronomy

Feb. 14, 2012 Rise Set
Actual Time 6:52 AM CST 5:55 PM CST
Civil Twilight 6:27 AM CST 6:20 PM CST
Nautical Twilight 5:58 AM CST 6:48 PM CST
Astronomical Twilight 5:30 AM CST 7:16 PM CST
Moon 12:29 AM CST (2/14) 11:10 AM CST (2/14)
Length of Visible Light 11h 52m
Length of Day
11h 03m
Waning Gibbous, 50% of the Moon is Illuminated
Feb 14
Waning Gibbous
Feb 21
New
Feb 29
First Quarter
Mar 8
Full
Mar 14
Last Quarter

Hourly Weather History & Observations

Time (CST) Temp. Windchill Dew Point Humidity Pressure Visibility Wind Dir Wind Speed Gust Speed Precip Events Conditions
12:18 AM 48.2 °F - 48.2 °F 100% 29.91 in 10.0 mi Calm Calm - N/A   Overcast
12:53 AM 48.9 °F - 48.0 °F 97% 29.92 in 10.0 mi West 3.5 mph - N/A   Overcast
1:11 AM 48.2 °F - 48.2 °F 100% 29.92 in 9.0 mi West 3.5 mph - N/A   Overcast
1:31 AM 50.0 °F - 48.2 °F 94% 29.92 in 1.8 mi WNW 3.5 mph - N/A   Overcast
1:42 AM 50.0 °F - 48.2 °F 94% 29.92 in 1.2 mi WNW 6.9 mph - N/A   Overcast
1:53 AM 50.0 °F - 48.9 °F 96% 29.93 in 2.5 mi West 6.9 mph - N/A   Overcast
2:00 AM 48.2 °F - 48.2 °F 100% 29.93 in 5.0 mi WNW 5.8 mph - N/A   Overcast
2:12 AM 50.0 °F - 48.2 °F 94% 29.93 in 10.0 mi WNW 3.5 mph - N/A   Overcast
2:29 AM 50.0 °F - 48.2 °F 94% 29.93 in 10.0 mi Variable 3.5 mph - N/A   Overcast
2:53 AM 48.2 °F - 48.2 °F 100% 29.94 in 10.0 mi NW 3.5 mph - N/A   Overcast
3:53 AM 48.0 °F - 46.0 °F 93% 29.95 in 10.0 mi Calm Calm - N/A   Overcast
4:53 AM 46.9 °F - 45.0 °F 93% 29.96 in 10.0 mi Calm Calm - N/A   Overcast
5:53 AM 46.9 °F - 45.0 °F 93% 29.98 in 10.0 mi Calm Calm - N/A   Overcast
6:53 AM 46.0 °F - 44.1 °F 93% 30.00 in 10.0 mi Calm Calm - N/A   Overcast
7:53 AM 46.0 °F 43.9 °F 44.1 °F 93% 30.02 in 9.0 mi Variable 4.6 mph - N/A   Overcast
8:53 AM 46.0 °F - 44.1 °F 93% 30.04 in 10.0 mi Calm Calm - N/A   Overcast
9:21 AM 46.4 °F - 44.6 °F 93% 30.04 in 7.0 mi Calm Calm - N/A   Overcast
9:53 AM 46.9 °F - 45.0 °F 93% 30.05 in 8.0 mi Calm Calm - N/A   Overcast
10:53 AM 48.0 °F - 45.0 °F 89% 30.06 in 10.0 mi Calm Calm - N/A   Overcast
11:13 AM 48.2 °F - 44.6 °F 87% 30.06 in 10.0 mi ENE 4.6 mph - N/A   Overcast
11:53 AM 48.0 °F - 45.0 °F 89% 30.05 in 10.0 mi Variable 4.6 mph - N/A   Overcast
12:53 PM 50.0 °F - 46.0 °F 86% 30.03 in 10.0 mi North 3.5 mph - N/A   Overcast
1:53 PM 51.1 °F - 46.0 °F 83% 30.01 in 10.0 mi Calm Calm - N/A   Overcast
2:51 PM 51.8 °F - 46.4 °F 82% 30.02 in 10.0 mi Calm Calm - N/A   Overcast
2:53 PM 52.0 °F - 46.0 °F 80% 30.02 in 10.0 mi Calm Calm - N/A   Overcast
3:53 PM 52.0 °F - 46.0 °F 80% 30.03 in 10.0 mi Calm Calm - N/A   Overcast
4:53 PM 53.1 °F - 46.9 °F 80% 30.03 in 10.0 mi Calm Calm - N/A   Mostly Cloudy
5:11 PM 51.8 °F - 46.4 °F 82% 30.04 in 10.0 mi Calm Calm - N/A   Scattered Clouds
5:53 PM 50.0 °F - 46.9 °F 89% 30.04 in 10.0 mi Calm Calm - N/A   Clear
6:53 PM 46.0 °F - 44.1 °F 93% 30.03 in 2.0 mi Calm Calm - N/A   Clear
7:03 PM 44.6 °F - 44.6 °F 100% 30.03 in 1.0 mi Calm Calm - N/A   Clear
7:11 PM 44.6 °F - 42.8 °F 93% 30.03 in 0.8 mi Calm Calm - N/A   Clear
7:27 PM 44.6 °F - 42.8 °F 93% 30.03 in 1.5 mi Calm Calm - N/A   Clear
7:40 PM 42.8 °F - 42.8 °F 100% 30.03 in 0.8 mi Calm Calm - N/A   Mist
7:49 PM 42.8 °F - 42.8 °F 100% 30.04 in 1.5 mi Calm Calm - N/A   Partly Cloudy
7:50 PM 42.8 °F - 42.8 °F 100% 30.04 in 2.0 mi Calm Calm - N/A   Partly Cloudy
7:53 PM 43.0 °F - 42.1 °F 97% 30.04 in 3.0 mi Calm Calm - N/A   Partly Cloudy
8:05 PM 42.8 °F - 42.8 °F 100% 30.04 in 2.0 mi Calm Calm - N/A   Partly Cloudy
8:11 PM 42.8 °F - 41.0 °F 93% 30.03 in 1.0 mi Calm Calm - N/A   Mist
8:18 PM 42.8 °F - 41.0 °F 93% 30.03 in 0.5 mi Calm Calm - N/A Fog Fog
8:23 PM 42.8 °F - 41.0 °F 93% 30.04 in 1.2 mi Calm Calm - N/A   Partly Cloudy
8:30 PM 42.8 °F - 41.0 °F 93% 30.03 in 3.0 mi Calm Calm - N/A   Partly Cloudy
8:53 PM 42.1 °F - 41.0 °F 96% 30.03 in 3.0 mi Calm Calm - N/A   Clear
9:53 PM 39.9 °F 37.8 °F 39.0 °F 97% 30.03 in 4.0 mi ENE 3.5 mph - N/A   Clear
10:53 PM 39.9 °F - 39.0 °F 97% 30.03 in 6.0 mi Calm Calm - N/A   Clear
11:48 PM 42.8 °F - 41.0 °F 93% 30.04 in 2.5 mi Calm Calm - N/A   Clear
11:53 PM 42.8 °F - 41.0 °F 93% 30.04 in 3.0 mi Calm Calm - N/A   Clear